[[{"header":{"parameterUnit":"m.s-1","parameterCategory":2,"la1":30.2991,"la2":30.254,"lo1":-89.0895,"lo2":-89.0444,"dy":0.0017,"dx":0.0017,"nx":28,"ny":28,"refTime":"2025-05-24T03:00:00:Z","depth":"0","parameterNumber":2,"parameterNumberName":"U-component_of_CURRENTS"},"data":[0,0,0,0,0,0,0,0,0,0,0,0,0,0,0,0,0,0,0,0,0,0,0,0,0,0,0,0,0,0,0,0,0,0,0,0,0,0,0,0,0,0,0,0,0,0,0,0,0,0,0,0,0,0,0,0,0,0,0.3039,0.3038,0,0.2987,0.2986,0.2985,0.2898,0.2897,0.2895,0.2894,0.284,0.284,0.284,0,0,0,0,0,0,0,0,0,0,0,0,0,0.3109,0.3108,0.3039,0.3038,0.3038,0.2987,0.2986,0.2985,0.2898,0.2897,0.2895,0.2893,0.284,0.284,0.284,0,0,0,0,0,0,0,0,0,0,0,0,0,0.3068,0.3107,0.3039,0.299,0.2986,0.2987,0.2986,0.2985,0.2899,0.2897,0.2894,0.2893,0.2841,0.284,0.284,0.288,0,0,0.2839,0.2839,0,0,0,0,0,0,0,0,0.307,0.3065,0.2998,0.2994,0.2989,0.2949,0.2991,0.295,0.2899,0.2929,0.2894,0.2892,0.288,0.2876,0.2867,0.2878,0.2875,0.2839,0.2839,0.2839,0.2839,0,0,0,0,0,0,0,0.3073,0.3067,0.3015,0.2998,0.2992,0.2987,0.2978,0.2983,0.2915,0.2926,0.292,0.2919,0.2877,0.2868,0.2866,0.2875,0.2839,0.2839,0.2839,0.2839,0.2992,0.2996,0,0,0,0,0,0,0.3084,0.3069,0.3017,0.3014,0.3028,0.2988,0.2978,0.2962,0.2914,0.2906,0.2921,0.2916,0.2869,0.2866,0.2863,0.2964,0.2839,0.2839,0.2839,0.2988,0.2993,0.2998,0,0,0,0,0,0,0.3086,0.308,0.3019,0.3044,0.3036,0.2989,0.2972,0.2962,0.2954,0.2911,0.2901,0.2923,0.2867,0.2864,0.289,0.2959,0.2839,0.2839,0.2983,0.299,0.2996,0.3131,0,0,0,0,0,0,0.3088,0.308,0.3081,0.3044,0.3035,0.3037,0.2974,0.2962,0.2957,0.2949,0.2911,0.2903,0.2866,0.2891,0.289,0.2957,0.2839,0.2978,0.2986,0.2994,0.3121,0.3141,0.3158,0,0,0,0,0,0.309,0.3093,0.3081,0.3076,0.3034,0.3039,0.3035,0.2993,0.296,0.2974,0.2953,0.2904,0.2941,0.2894,0.2892,0.296,0.2974,0.2984,0.2993,0.3113,0.3137,0.3157,0,0,0,0,0,0,0.3124,0.3084,0.307,0.306,0.3062,0.3026,0.3033,0.3009,0.3002,0.2995,0.2944,0.2937,0.3,0.2967,0.2916,0.3034,0.2956,0.2966,0.3048,0.3071,0.3089,0.3104,0.2838,0,0,0,0,0,0.3136,0.3126,0.3104,0.3104,0.3106,0.3077,0.3074,0.3054,0.3039,0.3032,0.3011,0.3008,0.3041,0.304,0.3059,0.3106,0.3114,0.3157,0.3176,0.3191,0.3207,0.3295,0.3322,0.3029,0.3029,0.3029,0,0,0.3148,0.313,0.3122,0.3112,0.3104,0.3128,0.3069,0.3079,0.3108,0.3033,0.3069,0.3077,0.3074,0.3139,0.3163,0.3111,0.3283,0.3203,0.3216,0.3223,0.3307,0.3336,0.3361,0.3035,0.3034,0.3033,0,0,0.3176,0.3157,0.3162,0.3174,0.3178,0.3173,0.3184,0.3171,0.3173,0.3214,0.3191,0.3243,0.3252,0.3282,0.3295,0.3431,0.3391,0.3436,0.3521,0.3607,0.3632,0.3653,0.371,0.3735,0.3429,0.3429,0.3429,0,0.3197,0.3193,0.3173,0.3196,0.3211,0.3201,0.3232,0.3251,0.3254,0.3275,0.3245,0.3332,0.3333,0.3431,0.3483,0.3475,0.3497,0.3428,0.363,0.3651,0.3671,0.3724,0.375,0.3437,0.3436,0.3435,0.3435,0,0.3226,0.324,0.3253,0.3275,0.33,0.3328,0.3354,0.3389,0.3395,0.341,0.3505,0.3525,0.3565,0.3599,0.3579,0.3729,0.3693,0.3654,0.3566,0.3708,0.3755,0.378,0.3448,0.3445,0.3443,0.3441,0,0,0.3214,0.3262,0.3267,0.329,0.3341,0.3357,0.3439,0.3498,0.3541,0.3592,0.3657,0.376,0.3761,0.3781,0.3782,0.3863,0.4035,0.3819,0.382,0.3863,0.4211,0.4072,0.4084,0.4022,0.4027,0.4031,0.419,0,0.3241,0.3296,0.3316,0.3384,0.3412,0.3451,0.3521,0.3584,0.363,0.37,0.377,0.3838,0.3832,0.3856,0.3951,0.4015,0.4105,0.3994,0.4078,0.4081,0.3929,0.411,0.3875,0.3988,0.4214,0.4218,0.4221,0,0.3243,0.3285,0.3347,0.3422,0.3438,0.3484,0.3576,0.3638,0.3753,0.379,0.3884,0.3921,0.4072,0.4027,0.4235,0.4159,0.4209,0.4253,0.4258,0.4096,0.3988,0.3883,0.4023,0.3888,0.4258,0.4255,0.4253,0,0.3208,0.3293,0.3341,0.3368,0.3464,0.35,0.3553,0.3658,0.371,0.3845,0.389,0.4054,0.4116,0.4251,0.4338,0.4304,0.4534,0.4487,0.4415,0.4404,0.4204,0.4166,0.4208,0.4645,0.4645,0.4645,0.4644,0,0.3201,0.3235,0.3324,0.3346,0.3408,0.3478,0.3545,0.3623,0.3731,0.3796,0.3922,0.3993,0.4176,0.4302,0.4394,0.4481,0.4584,0.4477,0.4458,0.4244,0.421,0.4076,0.4034,0.4651,0.4649,0.4648,0.4647,0,0.3141,0.32,0.3256,0.3359,0.3383,0.3423,0.3512,0.3563,0.3674,0.3763,0.3809,0.3983,0.4145,0.4298,0.4502,0.4513,0.4493,0.4621,0.4341,0.4286,0.4059,0.4032,0.397,0.387,0.4596,0.4594,0.4592,0,0.3118,0.3139,0.3241,0.3266,0.3304,0.3365,0.3404,0.3517,0.3565,0.3738,0.3774,0.3952,0.4042,0.4283,0.4351,0.4491,0.4399,0.4334,0.4235,0.4054,0.4014,0.3894,0.3807,0.4041,0.4035,0.403,0.4026,0,0.3076,0.3108,0.3158,0.3214,0.325,0.3284,0.3341,0.3369,0.35,0.3576,0.3678,0.3768,0.3947,0.3973,0.412,0.4175,0.4089,0.423,0.4136,0.3675,0.346,0.3346,0.3918,0.3981,0.3985,0.3988,0.3991,0.3993,0.3038,0.3062,0.3121,0.3158,0.319,0.3188,0.3172,0.3236,0.3284,0.3356,0.3519,0.3558,0.3642,0.38,0.3837,0.3688,0.3767,0.3584,0.3602,0.3525,0.3315,0.3771,0.3738,0.3741,0.3744,0.3746,0.3748,0,0.2983,0.3015,0.3059,0.3082,0.3066,0.3108,0.3114,0.3069,0.3065,0.3151,0.3221,0.3221,0.3213,0.3265,0.3201,0.3091,0.2988,0.301,0.2804,0.2781,0.3264,0.312,0.2835,0.2835,0.2835,0.2836,0.2836,0.2836,0.2959,0.2973,0.2996,0.2948,0.2949,0.2858,0.283,0.2784,0.2784,0.2724,0.2681,0.2752,0.2847,0.2835,0.269,0.2628,0.2474,0.2321,0.2411,0.2742,0.2796,0.2848,0.2702,0.2334,0.2334,0.1761,0.1757,0.1753]},{"header":{"parameterUnit":"m.s-1","parameterCategory":2,"la1":30.2991,"la2":30.254,"lo1":-89.0895,"lo2":-89.0444,"dy":0.0017,"dx":0.0017,"nx":28,"ny":28,"refTime":"2025-05-24T03:00:00:Z","depth":"0","parameterNumber":3,"parameterNumberName":"V-component_of_CURRENTS"},"data":[0,0,0,0,0,0,0,0,0,0,0,0,0,0,0,0,0,0,0,0,0,0,0,0,0,0,0,0,0,0,0,0,0,0,0,0,0,0,0,0,0,0,0,0,0,0,0,0,0,0,0,0,0,0,0,0,0,0,0.0455,0.0454,0,0.0403,0.0403,0.0402,0.037,0.037,0.037,0.0369,0.0321,0.032,0.0319,0,0,0,0,0,0,0,0,0,0,0,0,0,0.0564,0.0562,0.0455,0.0454,0.0454,0.0404,0.0403,0.0402,0.037,0.037,0.037,0.0369,0.0322,0.032,0.0319,0,0,0,0,0,0,0,0,0,0,0,0,0,0.0514,0.0561,0.0455,0.0432,0.043,0.0404,0.0403,0.0402,0.037,0.037,0.0369,0.0369,0.0322,0.0321,0.0319,0.0311,0,0,0.0313,0.0313,0,0,0,0,0,0,0,0,0.0517,0.051,0.0436,0.0434,0.0431,0.0393,0.0424,0.0372,0.037,0.0392,0.0369,0.0369,0.0346,0.0343,0.0332,0.0309,0.0307,0.0313,0.0312,0.0311,0.0311,0,0,0,0,0,0,0,0.0521,0.0512,0.0434,0.0435,0.0432,0.0438,0.043,0.0414,0.037,0.039,0.0387,0.0383,0.0345,0.0334,0.0331,0.0306,0.0313,0.0312,0.0311,0.031,0.0315,0.0316,0,0,0,0,0,0,0.0526,0.0515,0.0435,0.0432,0.0475,0.0436,0.0427,0.0405,0.037,0.0365,0.0383,0.0382,0.0337,0.0333,0.0329,0.0379,0.0311,0.031,0.0309,0.0314,0.0315,0.0317,0,0,0,0,0,0,0.0528,0.0519,0.0437,0.0475,0.0465,0.0434,0.0409,0.0404,0.0396,0.0365,0.036,0.0381,0.0337,0.0332,0.0331,0.0375,0.0309,0.0307,0.0312,0.0314,0.0316,0.044,0,0,0,0,0,0,0.0531,0.0519,0.0511,0.0474,0.0463,0.0436,0.041,0.0403,0.0394,0.0391,0.0362,0.0357,0.0336,0.0334,0.033,0.0371,0.0306,0.0311,0.0313,0.0315,0.0435,0.0446,0.0456,0,0,0,0,0,0.0535,0.0523,0.051,0.0501,0.0449,0.0437,0.0432,0.041,0.0394,0.0399,0.0383,0.0358,0.0345,0.0334,0.0328,0.037,0.031,0.0313,0.0315,0.043,0.0444,0.0456,0,0,0,0,0,0,0.0562,0.0517,0.0503,0.0475,0.0465,0.0432,0.0432,0.0414,0.0403,0.0402,0.0369,0.0364,0.0382,0.0352,0.034,0.0376,0.0325,0.0326,0.0414,0.0427,0.0437,0.048,0.0305,0,0,0,0,0,0.0565,0.0545,0.0512,0.0495,0.049,0.0463,0.0455,0.0441,0.0424,0.0418,0.04,0.0385,0.0387,0.0387,0.0375,0.0392,0.0368,0.0414,0.0425,0.0434,0.0464,0.0466,0.0481,0.0325,0.0325,0.0325,0,0,0.0573,0.0545,0.0534,0.0501,0.0488,0.0504,0.0458,0.0452,0.0477,0.0415,0.0441,0.0418,0.0397,0.0424,0.0429,0.0406,0.0461,0.0438,0.0446,0.0471,0.0471,0.0486,0.05,0.0327,0.0327,0.0327,0,0,0.0597,0.0554,0.0559,0.0553,0.0539,0.0531,0.0533,0.051,0.0511,0.0528,0.0499,0.051,0.0493,0.0505,0.0506,0.0566,0.0514,0.0548,0.0645,0.0647,0.066,0.0672,0.0645,0.0653,0.0558,0.0559,0.0559,0,0.0614,0.0605,0.0563,0.0577,0.0587,0.055,0.0582,0.0582,0.0566,0.0587,0.0554,0.0571,0.0546,0.0607,0.0629,0.0596,0.057,0.0601,0.0663,0.0674,0.0684,0.0654,0.0662,0.0565,0.0564,0.0563,0.0563,0,0.0651,0.0649,0.0654,0.0663,0.0673,0.0686,0.0688,0.0704,0.0699,0.0704,0.0748,0.072,0.0738,0.0729,0.07,0.0765,0.0713,0.0674,0.0638,0.0708,0.067,0.0676,0.0574,0.0572,0.057,0.0568,0,0,0.0668,0.0681,0.0682,0.0712,0.0718,0.0735,0.0786,0.0829,0.0881,0.0871,0.0944,0.0946,0.0927,0.0927,0.0891,0.0896,0.0931,0.0823,0.082,0.0809,0.0912,0.085,0.0849,0.0897,0.0899,0.0901,0.0852,0,0.0714,0.0767,0.0759,0.0829,0.0864,0.0861,0.0922,0.0959,0.0979,0.1038,0.1034,0.1077,0.1004,0.102,0.1019,0.0965,0.0954,0.0946,0.0836,0.0833,0.078,0.0858,0.0799,0.075,0.0858,0.0858,0.0859,0,0.0755,0.0787,0.0862,0.093,0.0947,0.0987,0.1079,0.1129,0.1198,0.1216,0.1256,0.1241,0.1279,0.1189,0.1148,0.1142,0.1043,0.0981,0.0977,0.0888,0.0783,0.0699,0.0755,0.0617,0.0867,0.0866,0.0866,0,0.0802,0.086,0.0927,0.0945,0.1017,0.1061,0.111,0.1185,0.1255,0.1333,0.1388,0.1406,0.143,0.1343,0.1222,0.1185,0.1152,0.1077,0.0923,0.0915,0.0832,0.0814,0.0759,0.1034,0.1034,0.1034,0.1034,0,0.085,0.09,0.0952,0.0987,0.1088,0.1121,0.1238,0.1285,0.1384,0.1493,0.1484,0.1564,0.1468,0.1434,0.1289,0.1145,0.1201,0.0969,0.0918,0.0869,0.0856,0.0702,0.0625,0.1032,0.1032,0.1033,0.1033,0,0.0884,0.0915,0.0995,0.1076,0.1108,0.1183,0.1306,0.1399,0.1474,0.1617,0.1652,0.1701,0.1658,0.153,0.1397,0.1237,0.1001,0.1012,0.0951,0.0895,0.0608,0.054,0.0443,0.0384,0.0843,0.0842,0.084,0,0.0912,0.0954,0.1052,0.111,0.1142,0.1251,0.134,0.1436,0.1541,0.1703,0.1785,0.1797,0.1821,0.1613,0.1338,0.1085,0.0949,0.0848,0.0771,0.0618,0.0505,0.0466,0.0422,0.0693,0.069,0.0688,0.0687,0,0.0958,0.0983,0.1045,0.1164,0.1254,0.1373,0.1499,0.1597,0.1737,0.185,0.1994,0.2028,0.1829,0.1579,0.1232,0.1038,0.0742,0.0797,0.0667,0.0425,0.0353,0.0263,0.0678,0.0669,0.0671,0.0673,0.0673,0.0674,0.0985,0.1033,0.1113,0.1225,0.1335,0.1483,0.1591,0.1737,0.1908,0.2091,0.2121,0.2156,0.178,0.1306,0.1059,0.054,0.0585,0.0371,0.0312,0.0295,0.0221,0.0594,0.051,0.0511,0.0512,0.0512,0.0513,0,0.1007,0.1066,0.1177,0.1311,0.1433,0.149,0.1694,0.1812,0.2005,0.2137,0.2243,0.2008,0.1564,0.1104,0.0425,0.0116,0.0021,-0.0036,-0.0103,-0.0117,0.0229,0.0205,0.0018,0.0018,0.0018,0.0019,0.0019,0.0019,0.1022,0.1109,0.1169,0.1361,0.1464,0.163,0.1747,0.1923,0.2043,0.2154,0.2116,0.209,0.1685,0.0602,-0.0106,-0.0258,-0.0432,-0.0498,-0.0536,-0.032,-0.0286,-0.0254,-0.0293,-0.0581,-0.0581,-0.0863,-0.0866,-0.0869]}],[{"header":{"parameterUnit":"m.s-1","parameterCategory":2,"la1":30.2991,"la2":30.254,"lo1":-89.0895,"lo2":-89.0444,"dy":0.0017,"dx":0.0017,"nx":28,"ny":28,"refTime":"2025-05-24T03:00:00:Z","depth":"2","parameterNumber":2,"parameterNumberName":"U-component_of_CURRENTS"},"data":[0,0,0,0,0,0,0,0,0,0,0,0,0,0,0,0,0,0,0,0,0,0,0,0,0,0,0,0,0,0,0,0,0,0,0,0,0,0,0,0,0,0,0,0,0,0,0,0,0,0,0,0,0,0,0,0,0,0,0.2851,0.2852,0,0.2949,0.295,0.2951,0.2967,0.2967,0.2967,0.2967,0.2915,0.2914,0.2913,0,0,0,0,0,0,0,0,0,0,0,0,0,0.2659,0.2662,0.2851,0.2853,0.2854,0.2949,0.295,0.2951,0.2967,0.2967,0.2967,0.2967,0.2916,0.2914,0.2913,0,0,0,0,0,0,0,0,0,0,0,0,0,0.2742,0.2663,0.285,0.288,0.2884,0.2949,0.295,0.2951,0.2967,0.2967,0.2967,0.2967,0.2916,0.2915,0.2913,0.2907,0,0,0.2907,0.2906,0,0,0,0,0,0,0,0,0.2737,0.2748,0.2873,0.2878,0.2883,0.2952,0.2864,0.2931,0.2968,0.2928,0.2967,0.2967,0.2919,0.2917,0.2928,0.2904,0.2902,0.2907,0.2906,0.2905,0.2905,0,0,0,0,0,0,0,0.2731,0.2744,0.2882,0.2876,0.2881,0.2883,0.2893,0.2877,0.2915,0.2931,0.2935,0.2957,0.2919,0.293,0.2926,0.2901,0.2907,0.2906,0.2904,0.2904,0.2977,0.298,0,0,0,0,0,0,0.2736,0.2739,0.2879,0.2886,0.2816,0.2887,0.2898,0.2924,0.2919,0.2921,0.2958,0.2958,0.2933,0.2928,0.2924,0.2997,0.2905,0.2904,0.2903,0.2974,0.2978,0.2981,0,0,0,0,0,0,0.2731,0.2747,0.2875,0.282,0.2837,0.2891,0.2919,0.2926,0.2945,0.2942,0.2939,0.297,0.2932,0.2927,0.293,0.2991,0.2903,0.2901,0.2971,0.2975,0.298,0.3089,0,0,0,0,0,0,0.2725,0.2745,0.2783,0.282,0.2841,0.292,0.2921,0.2929,0.2962,0.2964,0.2952,0.2947,0.2932,0.2933,0.2929,0.2987,0.29,0.2967,0.2973,0.2978,0.3081,0.3096,0.3109,0,0,0,0,0,0.2718,0.2781,0.2784,0.2803,0.2885,0.2921,0.2931,0.2963,0.2963,0.2975,0.2976,0.2947,0.2968,0.2933,0.2927,0.2987,0.2964,0.2971,0.2978,0.3075,0.3094,0.3109,0,0,0,0,0,0,0.2753,0.279,0.2794,0.2875,0.2894,0.2927,0.2965,0.2968,0.298,0.2987,0.2962,0.2958,0.3,0.2972,0.2935,0.303,0.2971,0.2976,0.3047,0.3064,0.3078,0.3098,0.2898,0,0,0,0,0,0.277,0.2803,0.2835,0.2897,0.2909,0.2929,0.2956,0.2969,0.2984,0.2991,0.299,0.3,0.3025,0.3022,0.3038,0.3059,0.3055,0.3103,0.3118,0.3129,0.3145,0.3203,0.3223,0.3004,0.3004,0.3003,0,0,0.2801,0.2829,0.2851,0.2903,0.2921,0.2949,0.2943,0.2987,0.3028,0.298,0.3038,0.3046,0.3045,0.3098,0.3113,0.3075,0.3189,0.3138,0.3148,0.3158,0.3212,0.3233,0.3252,0.3008,0.3007,0.3007,0,0,0.2858,0.2898,0.2928,0.2933,0.2967,0.2989,0.2998,0.3032,0.3067,0.3104,0.3113,0.3151,0.316,0.3196,0.3207,0.33,0.3271,0.3313,0.3385,0.3441,0.3459,0.3475,0.3489,0.3505,0.3309,0.3309,0.3309,0,0.2871,0.2926,0.2946,0.2962,0.2983,0.3001,0.303,0.3074,0.3114,0.3155,0.3135,0.3223,0.3218,0.3302,0.3351,0.3334,0.3345,0.3316,0.3459,0.3475,0.3489,0.3499,0.3516,0.3315,0.3315,0.3314,0.3313,0,0.2936,0.2965,0.2984,0.3004,0.3045,0.3064,0.312,0.3176,0.3213,0.3251,0.3346,0.3359,0.3403,0.343,0.3415,0.3535,0.3502,0.3477,0.3412,0.3518,0.3521,0.3537,0.3324,0.3322,0.332,0.3319,0,0,0.2908,0.3004,0.2991,0.301,0.3054,0.3089,0.3187,0.3269,0.3337,0.3394,0.3479,0.3555,0.3564,0.358,0.3586,0.3642,0.3752,0.3611,0.3611,0.3616,0.3857,0.3619,0.3612,0.3756,0.3759,0.3762,0.3814,0,0.2906,0.2971,0.3024,0.307,0.3094,0.3154,0.3247,0.3339,0.3409,0.3499,0.3561,0.3634,0.3621,0.3649,0.3712,0.3752,0.38,0.3739,0.3761,0.3761,0.353,0.3625,0.3374,0.3381,0.3828,0.3831,0.3833,0,0.2861,0.294,0.3009,0.3105,0.3124,0.318,0.3318,0.3401,0.3543,0.36,0.3686,0.372,0.3831,0.379,0.3913,0.3876,0.3883,0.39,0.3901,0.3652,0.3551,0.3351,0.3391,0.3857,0.3855,0.3854,0.3852,0,0.2772,0.2866,0.2943,0.2961,0.3119,0.3191,0.3283,0.3432,0.351,0.3665,0.3708,0.3839,0.3884,0.3958,0.396,0.3966,0.4054,0.4054,0.3845,0.3827,0.3601,0.3555,0.4138,0.4138,0.4138,0.4138,0.4138,0,0.2661,0.2709,0.2916,0.2945,0.3073,0.3177,0.33,0.3415,0.3549,0.362,0.3746,0.3792,0.3933,0.3971,0.3999,0.3936,0.4076,0.3874,0.3835,0.3627,0.3585,0.3985,0.3966,0.414,0.4139,0.4139,0.4139,0,0.2507,0.2627,0.2737,0.2951,0.3023,0.3115,0.3294,0.3366,0.3507,0.3599,0.3644,0.3784,0.3834,0.3895,0.3991,0.3931,0.3931,0.3861,0.3574,0.3498,0.3671,0.3659,0.3695,0.3687,0.368,0.3675,0.367,0,0.2455,0.2495,0.2733,0.2821,0.2921,0.3075,0.317,0.3339,0.3398,0.3557,0.3577,0.3662,0.3646,0.3667,0.3625,0.3596,0.3738,0.3327,0.3287,0.3673,0.3633,0.363,0.3626,0.3051,0.3042,0.3035,0.3029,0,0.2387,0.2467,0.2561,0.2736,0.2858,0.2984,0.3119,0.3157,0.3321,0.3348,0.3364,0.3359,0.3366,0.3208,0.3155,0.3121,0.3318,0.3163,0.3682,0.3161,0.3059,0.3021,0.3041,0.2961,0.2968,0.2972,0.2976,0.2979,0.233,0.2396,0.2512,0.2646,0.2771,0.2864,0.2858,0.2959,0.2982,0.2963,0.3059,0.2943,0.2965,0.2733,0.2642,0.261,0.2836,0.2768,0.2797,0.2833,0.2708,0.2594,0.2386,0.2389,0.2392,0.2395,0.2397,0,0.2251,0.2344,0.2442,0.2573,0.2583,0.2747,0.2786,0.2692,0.2614,0.2671,0.2584,0.2309,0.2184,0.2246,0.208,0.2046,0.2099,0.1991,0.2076,0.2142,0.2201,0.205,0.1551,0.1549,0.1547,0.1544,0,0,0.225,0.2282,0.2335,0.2346,0.2442,0.2385,0.2364,0.2271,0.2221,0.2057,0.1992,0.2048,0.2155,0.1819,0.177,0.1646,0.1893,0.1584,0.2263,0.2429,0.2485,0.2642,0.2479,0,0,0,0,0]},{"header":{"parameterUnit":"m.s-1","parameterCategory":2,"la1":30.2991,"la2":30.254,"lo1":-89.0895,"lo2":-89.0444,"dy":0.0017,"dx":0.0017,"nx":28,"ny":28,"refTime":"2025-05-24T03:00:00:Z","depth":"2","parameterNumber":3,"parameterNumberName":"V-component_of_CURRENTS"},"data":[0,0,0,0,0,0,0,0,0,0,0,0,0,0,0,0,0,0,0,0,0,0,0,0,0,0,0,0,0,0,0,0,0,0,0,0,0,0,0,0,0,0,0,0,0,0,0,0,0,0,0,0,0,0,0,0,0,0,-0.0418,-0.0417,0,-0.0361,-0.0361,-0.036,-0.037,-0.0371,-0.0371,-0.0372,-0.0303,-0.0301,-0.0298,0,0,0,0,0,0,0,0,0,0,0,0,0,-0.0409,-0.041,-0.0418,-0.0417,-0.0416,-0.0361,-0.0361,-0.036,-0.037,-0.0371,-0.0372,-0.0372,-0.0304,-0.0301,-0.0298,0,0,0,0,0,0,0,0,0,0,0,0,0,-0.0393,-0.0411,-0.0418,-0.0411,-0.0409,-0.0361,-0.0361,-0.036,-0.037,-0.0371,-0.0372,-0.0373,-0.0305,-0.0301,-0.0298,-0.0257,0,0,-0.0287,-0.0285,0,0,0,0,0,0,0,0,-0.0394,-0.0394,-0.0413,-0.0411,-0.0409,-0.037,-0.0332,-0.0324,-0.037,-0.039,-0.0372,-0.0373,-0.0321,-0.0316,-0.031,-0.0254,-0.0251,-0.0286,-0.0284,-0.0283,-0.0282,0,0,0,0,0,0,0,-0.0395,-0.0396,-0.04,-0.0412,-0.0409,-0.0367,-0.0367,-0.033,-0.0354,-0.0388,-0.0387,-0.0374,-0.032,-0.0313,-0.0308,-0.025,-0.0286,-0.0283,-0.0281,-0.028,-0.0131,-0.013,0,0,0,0,0,0,-0.0399,-0.0398,-0.0401,-0.0398,-0.0399,-0.0366,-0.0367,-0.0385,-0.0355,-0.035,-0.0373,-0.0374,-0.0319,-0.0312,-0.0305,-0.0216,-0.0283,-0.0279,-0.0277,-0.0133,-0.0131,-0.0129,0,0,0,0,0,0,-0.04,-0.0402,-0.0404,-0.039,-0.0387,-0.0366,-0.0386,-0.0383,-0.0339,-0.0343,-0.0339,-0.0326,-0.0319,-0.031,-0.0238,-0.0215,-0.0278,-0.0274,-0.0135,-0.0132,-0.013,-0.0063,0,0,0,0,0,0,-0.0401,-0.0403,-0.0407,-0.0392,-0.0388,-0.0353,-0.0384,-0.0381,-0.0329,-0.0329,-0.0301,-0.0298,-0.0319,-0.0243,-0.0234,-0.0211,-0.0272,-0.0137,-0.0134,-0.0131,-0.0067,-0.0058,-0.0051,0,0,0,0,0,-0.0401,-0.0387,-0.0409,-0.0407,-0.04,-0.035,-0.0343,-0.0334,-0.0325,-0.0297,-0.0273,-0.0297,-0.0217,-0.0237,-0.0227,-0.0204,-0.0139,-0.0135,-0.0131,-0.0071,-0.006,-0.0051,0,0,0,0,0,0,-0.0376,-0.0386,-0.0409,-0.04,-0.0373,-0.035,-0.031,-0.0299,-0.0257,-0.0247,-0.0253,-0.0247,-0.0183,-0.0189,-0.0211,-0.0152,-0.019,-0.0183,-0.0148,-0.0137,-0.0129,-0.0131,-0.0269,0,0,0,0,0,-0.0378,-0.0381,-0.0372,-0.0363,-0.034,-0.0317,-0.0289,-0.0281,-0.0244,-0.0226,-0.0194,-0.0175,-0.0163,-0.0144,-0.0125,-0.007,-0.0103,-0.0056,-0.0047,-0.004,-0.0035,-0.0055,-0.0049,-0.0116,-0.0116,-0.0116,0,0,-0.0375,-0.037,-0.0379,-0.0358,-0.0333,-0.0295,-0.0302,-0.0242,-0.0211,-0.0221,-0.0139,-0.0126,-0.0138,-0.0095,-0.0068,-0.0093,-0.0038,-0.0035,-0.0029,-0.0028,-0.005,-0.0044,-0.0039,-0.0113,-0.0114,-0.0114,0,0,-0.0326,-0.0351,-0.032,-0.0304,-0.0255,-0.0242,-0.0211,-0.0156,-0.0131,-0.0066,-0.0072,-0.0037,0.0007,-0.0006,-0.0013,0.0063,0.0014,0.0071,0.0108,0.009,0.0094,0.0098,0.0058,0.0058,0.0067,0.0067,0.0068,0,-0.0302,-0.0294,-0.0295,-0.0254,-0.0228,-0.021,-0.0155,-0.0133,-0.006,-0.0021,-0.0033,0.0037,0.0032,0.0061,0.0071,0.0079,0.0058,0.0067,0.0098,0.0102,0.0104,0.0062,0.0061,0.0071,0.0071,0.007,0.007,0,-0.0245,-0.0231,-0.0196,-0.0165,-0.0132,-0.008,-0.0056,0.0008,0.0042,0.0055,0.0126,0.0121,0.0152,0.015,0.0127,0.0156,0.0131,0.0115,0.0067,0.0115,0.0068,0.0065,0.0076,0.0075,0.0074,0.0073,0,0,-0.0168,-0.0162,-0.0142,-0.0125,-0.0083,-0.0041,0.0024,0.0092,0.0151,0.0181,0.0246,0.0245,0.025,0.0243,0.0231,0.0208,0.0196,0.0175,0.0172,0.0126,0.0146,0.0099,0.0091,0.019,0.0191,0.0191,0.0102,0,-0.01,-0.0046,-0.0045,0.0028,0.0064,0.0086,0.0152,0.0203,0.0236,0.0303,0.0281,0.033,0.0278,0.0307,0.0272,0.0239,0.0195,0.0221,0.0115,0.0112,0.0057,0.0089,0.0114,0.0035,0.0099,0.0098,0.0098,0,-0.0008,0.0005,0.0063,0.0119,0.0148,0.0197,0.0305,0.0362,0.0422,0.0451,0.0468,0.0451,0.0446,0.0384,0.0306,0.0331,0.0239,0.0183,0.0178,0.011,0.0061,0.0001,0.0028,0.0093,0.0093,0.0094,0.0094,0,0.0061,0.0113,0.0151,0.0155,0.0208,0.0277,0.0344,0.0423,0.0491,0.0552,0.0598,0.0567,0.0577,0.0471,0.0325,0.0335,0.0205,0.0202,0.006,0.0054,0.0041,0.0034,0.0114,0.0114,0.0115,0.0115,0.0115,0,0.0144,0.0193,0.0181,0.0198,0.0303,0.0333,0.0466,0.0538,0.0618,0.0699,0.0681,0.0712,0.0602,0.0503,0.0356,0.0191,0.0218,0.007,0.0035,0.0065,0.0062,0.0087,0.0085,0.0112,0.0112,0.0113,0.0114,0,0.0229,0.0213,0.0251,0.0288,0.0333,0.0407,0.055,0.0627,0.0717,0.0817,0.0845,0.0832,0.0741,0.0568,0.0392,0.0248,0.0082,-0.0006,0.0022,-0.0007,-0.0059,-0.0057,-0.0116,-0.0118,-0.012,-0.0121,-0.0123,0,0.0275,0.0293,0.0308,0.0328,0.0356,0.0467,0.0564,0.0684,0.0752,0.0877,0.0916,0.0878,0.0845,0.0564,0.0311,0.0053,0.002,-0.0108,-0.0082,-0.0052,-0.008,-0.0074,-0.0069,-0.0078,-0.0079,-0.008,-0.0081,0,0.0351,0.0336,0.033,0.0361,0.0436,0.0531,0.0664,0.0729,0.0865,0.0988,0.1061,0.1053,0.0823,0.0593,0.0243,0.0063,-0.0049,-0.0129,-0.01,-0.0024,-0.0024,-0.0049,-0.0044,-0.0087,-0.0086,-0.0086,-0.0085,-0.0085,0.0388,0.0382,0.0349,0.0402,0.0466,0.0561,0.0681,0.0788,0.0949,0.1116,0.1093,0.1133,0.0878,0.0467,0.0175,-0.0109,-0.0095,-0.0186,-0.0181,-0.0175,-0.0155,-0.0158,-0.0243,-0.0244,-0.0244,-0.0244,-0.0244,0,0.0417,0.0412,0.0415,0.0444,0.0509,0.0574,0.0733,0.085,0.1048,0.1155,0.1251,0.1026,0.0786,0.0505,0.0091,-0.0169,-0.0167,-0.0245,-0.0173,-0.0167,-0.0161,-0.0137,-0.0223,-0.0223,-0.0223,-0.0223,0,0,0.043,0.0433,0.0429,0.05,0.0543,0.0703,0.0817,0.0979,0.1099,0.1208,0.1259,0.1213,0.0881,0.0587,0.024,0.0024,-0.0009,-0.0026,-0.0023,0.0108,0.0118,-0.0116,-0.0072,0,0,0,0,0]}],[{"header":{"parameterUnit":"m.s-1","parameterCategory":2,"la1":30.2991,"la2":30.254,"lo1":-89.0895,"lo2":-89.0444,"dy":0.0017,"dx":0.0017,"nx":28,"ny":28,"refTime":"2025-05-24T03:00:00:Z","depth":"4","parameterNumber":2,"parameterNumberName":"U-component_of_CURRENTS"},"data":[0,0,0,0,0,0,0,0,0,0,0,0,0,0,0,0,0,0,0,0,0,0,0,0,0,0,0,0,0,0,0,0,0,0,0,0,0,0,0,0,0,0,0,0,0,0,0,0,0,0,0,0,0,0,0,0,0,0,0.0878,0.0879,0,0.0915,0.0915,0.0916,0.0927,0.0927,0.0927,0.0927,0.1013,0.1015,0.1018,0,0,0,0,0,0,0,0,0,0,0,0,0,0.0873,0.0873,0.0878,0.0879,0.0879,0.0915,0.0915,0.0916,0.0927,0.0927,0.0927,0.0927,0.1012,0.1015,0.1018,0,0,0,0,0,0,0,0,0,0,0,0,0,0.0888,0.0872,0.0878,0.089,0.0892,0.0915,0.0915,0.0916,0.0927,0.0927,0.0927,0.0927,0.1011,0.1015,0.1018,0.1041,0,0,0.1029,0.103,0,0,0,0,0,0,0,0,0.0887,0.0887,0.0888,0.0889,0.0891,0.0917,0.0945,0.0961,0.0927,0.0912,0.0927,0.0927,0.0987,0.0992,0.0996,0.1045,0.1049,0.1029,0.1031,0.1033,0.1034,0,0,0,0,0,0,0,0.0886,0.0886,0.0891,0.0888,0.0891,0.0913,0.0914,0.0948,0.0949,0.0913,0.0915,0.0921,0.0988,0.0993,0.0999,0.105,0.1029,0.1032,0.1034,0.1036,0.1128,0.1129,0,0,0,0,0,0,0.0881,0.0885,0.089,0.0892,0.089,0.0913,0.0915,0.0908,0.0948,0.0954,0.0921,0.0921,0.0987,0.0995,0.1002,0.1083,0.1033,0.1036,0.1038,0.1128,0.1128,0.1129,0,0,0,0,0,0,0.088,0.088,0.0889,0.0892,0.0894,0.0913,0.0906,0.0909,0.0946,0.0953,0.096,0.0959,0.0987,0.0997,0.1044,0.1084,0.1038,0.1041,0.1128,0.1128,0.1129,0.1213,0,0,0,0,0,0,0.088,0.088,0.0883,0.0891,0.0894,0.0914,0.0906,0.091,0.0949,0.0951,0.0988,0.0994,0.0988,0.1039,0.1048,0.1088,0.1044,0.1127,0.1128,0.1128,0.1209,0.1216,0.1222,0,0,0,0,0,0.0879,0.0878,0.0883,0.0884,0.0894,0.0915,0.0919,0.0931,0.0951,0.0966,0.0989,0.0994,0.1049,0.1043,0.1053,0.1096,0.1127,0.1128,0.1128,0.1207,0.1215,0.1221,0,0,0,0,0,0,0.0867,0.0879,0.0885,0.0884,0.0906,0.0917,0.0936,0.0957,0.0988,0.1003,0.1012,0.1019,0.1061,0.1067,0.106,0.1117,0.1084,0.1087,0.114,0.1148,0.1154,0.1132,0.1047,0,0,0,0,0,0.0869,0.0882,0.0892,0.0899,0.091,0.0936,0.0953,0.0969,0.0994,0.1009,0.1033,0.1054,0.1068,0.1101,0.11,0.1161,0.1155,0.1186,0.1193,0.1198,0.1183,0.1231,0.1241,0.1131,0.1131,0.1131,0,0,0.0862,0.0879,0.0881,0.0901,0.0921,0.0938,0.0946,0.0985,0.1002,0.1016,0.1058,0.1075,0.108,0.1119,0.1142,0.1142,0.1223,0.1199,0.1204,0.1185,0.1233,0.1244,0.1254,0.1132,0.1132,0.1132,0,0,0.0872,0.0877,0.0897,0.0921,0.0964,0.0968,0.099,0.1022,0.1038,0.1075,0.1083,0.1124,0.1155,0.1171,0.118,0.1225,0.1237,0.1239,0.1285,0.1334,0.1344,0.1353,0.1352,0.136,0.1266,0.1266,0.1266,0,0.0876,0.089,0.0907,0.0941,0.0962,0.0986,0.1012,0.1026,0.1072,0.1098,0.1089,0.1137,0.1165,0.1212,0.1233,0.1242,0.1261,0.1267,0.1346,0.1354,0.1361,0.1359,0.1366,0.127,0.127,0.1269,0.1269,0,0.0888,0.092,0.0938,0.0979,0.1,0.1032,0.1048,0.1084,0.1105,0.1121,0.1163,0.1179,0.1217,0.1239,0.1259,0.1337,0.1327,0.1335,0.1335,0.1378,0.1371,0.1378,0.1276,0.1275,0.1273,0.1272,0,0,0.087,0.0932,0.0952,0.0973,0.1028,0.104,0.1081,0.1115,0.1149,0.1171,0.1224,0.1245,0.1275,0.1285,0.1322,0.1376,0.1463,0.1404,0.1405,0.1415,0.1555,0.149,0.149,0.1515,0.1516,0.1518,0.1527,0,0.0888,0.0933,0.0975,0.1022,0.1031,0.1084,0.1113,0.1156,0.1179,0.1236,0.1261,0.1315,0.1284,0.1348,0.1384,0.1454,0.1486,0.1457,0.1498,0.1497,0.1447,0.1498,0.1523,0.1532,0.1533,0.1534,0.1535,0,0.0909,0.0921,0.0957,0.1027,0.1043,0.108,0.1137,0.1179,0.126,0.1296,0.1342,0.1375,0.1458,0.1438,0.15,0.1497,0.1526,0.1549,0.1551,0.146,0.1445,0.1478,0.1547,0.1546,0.1545,0.1544,0.1543,0,0.0868,0.094,0.0954,0.0975,0.1031,0.1079,0.1134,0.1202,0.1255,0.137,0.1421,0.1474,0.154,0.1567,0.1605,0.1591,0.1668,0.165,0.1582,0.1576,0.1595,0.1585,0.1681,0.1681,0.1681,0.1681,0.1681,0,0.0876,0.0907,0.0936,0.0943,0.0978,0.1051,0.1123,0.1195,0.1311,0.1378,0.1459,0.15,0.159,0.1639,0.1644,0.1627,0.1689,0.1581,0.1585,0.1626,0.162,0.1599,0.1589,0.1681,0.1681,0.1681,0.1681,0,0.0857,0.0883,0.0894,0.0936,0.0963,0.0995,0.1142,0.1184,0.1305,0.1406,0.147,0.1576,0.1641,0.1676,0.1753,0.1673,0.1682,0.1661,0.1687,0.1692,0.1534,0.1528,0.1563,0.1561,0.1559,0.1558,0.1557,0,0.0845,0.0838,0.0869,0.0873,0.0906,0.0973,0.1022,0.1173,0.1228,0.141,0.1446,0.1584,0.1633,0.1644,0.1698,0.1694,0.1673,0.1642,0.158,0.1527,0.1528,0.1524,0.1521,0.1554,0.1553,0.1553,0.1553,0,0.0786,0.0807,0.0797,0.0803,0.0841,0.0893,0.0989,0.1036,0.1205,0.1322,0.1422,0.1488,0.1556,0.16,0.1636,0.1616,0.1647,0.1623,0.1625,0.1566,0.1517,0.1518,0.1517,0.1547,0.1548,0.1548,0.1548,0,0.0744,0.071,0.0702,0.0719,0.0759,0.0798,0.0868,0.0953,0.1049,0.1267,0.1294,0.1426,0.1552,0.1559,0.1576,0.1584,0.1538,0.1458,0.1467,0.1474,0.1444,0.1368,0.1357,0,0,0,0,0,0.0699,0.0649,0.0628,0.0632,0.0681,0.0716,0.0825,0.0897,0.1064,0.1109,0.1217,0.1291,0.1368,0.1423,0.141,0.1497,0.1516,0.147,0.1421,0.1514,0.1521,0.1495,0,0,0,0,0,0,0.0655,0.0618,0.0584,0.0564,0.0569,0.0613,0.0681,0.0788,0.0832,0.1013,0.1064,0.12,0.1285,0.1371,0.1383,0.14,0.1338,0.1561,0.1557,0.1511,0.1517,0.1522,0.1498,0,0,0,0,0]},{"header":{"parameterUnit":"m.s-1","parameterCategory":2,"la1":30.2991,"la2":30.254,"lo1":-89.0895,"lo2":-89.0444,"dy":0.0017,"dx":0.0017,"nx":28,"ny":28,"refTime":"2025-05-24T03:00:00:Z","depth":"4","parameterNumber":3,"parameterNumberName":"V-component_of_CURRENTS"},"data":[0,0,0,0,0,0,0,0,0,0,0,0,0,0,0,0,0,0,0,0,0,0,0,0,0,0,0,0,0,0,0,0,0,0,0,0,0,0,0,0,0,0,0,0,0,0,0,0,0,0,0,0,0,0,0,0,0,0,-0.0012,-0.0012,0,-0.0036,-0.0036,-0.0036,-0.0041,-0.0041,-0.0041,-0.004,-0.0116,-0.0118,-0.0121,0,0,0,0,0,0,0,0,0,0,0,0,0,-0.0017,-0.0016,-0.0011,-0.0012,-0.0012,-0.0036,-0.0036,-0.0036,-0.0041,-0.0041,-0.0041,-0.004,-0.0116,-0.0118,-0.0121,0,0,0,0,0,0,0,0,0,0,0,0,0,-0.0025,-0.0016,-0.0011,-0.0017,-0.0018,-0.0036,-0.0036,-0.0036,-0.0041,-0.0041,-0.004,-0.004,-0.0115,-0.0118,-0.0121,-0.0147,0,0,-0.0131,-0.0133,0,0,0,0,0,0,0,0,-0.0024,-0.0025,-0.0016,-0.0017,-0.0018,-0.0035,-0.0066,-0.0076,-0.0041,-0.0032,-0.004,-0.004,-0.0094,-0.0099,-0.0104,-0.0151,-0.0154,-0.0132,-0.0134,-0.0135,-0.0136,0,0,0,0,0,0,0,-0.0024,-0.0024,-0.0021,-0.0016,-0.0017,-0.0035,-0.0035,-0.0068,-0.0066,-0.0033,-0.0033,-0.0036,-0.0095,-0.01,-0.0106,-0.0155,-0.0131,-0.0134,-0.0136,-0.0138,-0.0221,-0.0221,0,0,0,0,0,0,-0.0018,-0.0023,-0.002,-0.0022,-0.002,-0.0035,-0.0035,-0.003,-0.0064,-0.0069,-0.0036,-0.0036,-0.0095,-0.0102,-0.0108,-0.014,-0.0135,-0.0138,-0.014,-0.0221,-0.0221,-0.0221,0,0,0,0,0,0,-0.0018,-0.0018,-0.0019,-0.0024,-0.0025,-0.0035,-0.0029,-0.003,-0.0039,-0.0066,-0.0071,-0.0043,-0.0095,-0.0104,-0.0137,-0.0143,-0.0139,-0.0142,-0.022,-0.0221,-0.0221,-0.0205,0,0,0,0,0,0,-0.0018,-0.0017,-0.0011,-0.0023,-0.0025,-0.0029,-0.0029,-0.0031,-0.0041,-0.0041,-0.0074,-0.008,-0.0095,-0.0132,-0.014,-0.0148,-0.0145,-0.022,-0.022,-0.0221,-0.0205,-0.0204,-0.0204,0,0,0,0,0,-0.0018,-0.001,-0.0011,-0.0011,-0.0016,-0.0029,-0.0032,-0.0038,-0.0041,-0.0045,-0.0067,-0.0079,-0.014,-0.0135,-0.0144,-0.0153,-0.022,-0.022,-0.0221,-0.0205,-0.0204,-0.0204,0,0,0,0,0,0,-0.0007,-0.001,-0.0011,-0.0003,-0.0016,-0.003,-0.0033,-0.0041,-0.0061,-0.0064,-0.0088,-0.0097,-0.0124,-0.0144,-0.0137,-0.0177,-0.018,-0.0183,-0.0165,-0.0165,-0.0164,-0.0139,-0.0148,0,0,0,0,0,-0.0003,0.0001,-0.0008,-0.0004,-0.0008,-0.0023,-0.0029,-0.0037,-0.0055,-0.0063,-0.0084,-0.0109,-0.0134,-0.0153,-0.0174,-0.0206,-0.0225,-0.0215,-0.0215,-0.0214,-0.02,-0.0245,-0.0248,-0.0223,-0.0223,-0.0223,0,0,0.0003,0.0,0.0004,-0.0002,-0.0011,-0.0012,-0.0026,-0.0038,-0.0038,-0.0071,-0.008,-0.0109,-0.0141,-0.0166,-0.0181,-0.0185,-0.0232,-0.0215,-0.0214,-0.02,-0.0246,-0.0249,-0.0251,-0.0223,-0.0223,-0.0223,0,0,0.0011,0.0013,0.0018,0.001,-0.0004,-0.0011,-0.0015,-0.0031,-0.0037,-0.0056,-0.0076,-0.0108,-0.0144,-0.0166,-0.0183,-0.0197,-0.0225,-0.0208,-0.0192,-0.0236,-0.0239,-0.0241,-0.0271,-0.0276,-0.0212,-0.0212,-0.0212,0,0.0016,0.0027,0.0015,0.0015,0.0015,-0.0008,-0.0004,-0.0014,-0.0039,-0.0046,-0.0054,-0.0107,-0.0139,-0.0171,-0.0173,-0.0195,-0.0221,-0.0192,-0.0236,-0.0238,-0.0241,-0.0271,-0.0277,-0.0211,-0.0211,-0.0211,-0.0211,0,0.0034,0.0037,0.0037,0.0038,0.0032,0.0029,0.0017,0.0012,0.0,-0.0016,-0.0046,-0.0088,-0.0118,-0.014,-0.0162,-0.0197,-0.021,-0.0228,-0.0236,-0.0242,-0.0274,-0.028,-0.021,-0.021,-0.021,-0.021,0,0,0.005,0.0053,0.0048,0.006,0.0045,0.0047,0.0045,0.0038,0.0043,0.0007,0.0002,-0.0051,-0.008,-0.0101,-0.014,-0.018,-0.0229,-0.021,-0.0213,-0.0236,-0.0322,-0.0285,-0.0288,-0.0262,-0.0263,-0.0264,-0.0337,0,0.0065,0.0084,0.0073,0.009,0.0103,0.0087,0.0093,0.0079,0.0063,0.0051,-0.0004,-0.0025,-0.0065,-0.0083,-0.0132,-0.0204,-0.0245,-0.0207,-0.0314,-0.0316,-0.028,-0.0294,-0.0266,-0.0342,-0.0344,-0.0345,-0.0345,0,0.0079,0.0096,0.012,0.0135,0.0138,0.0144,0.0157,0.0156,0.0125,0.0109,0.0068,0.0026,-0.0037,-0.0067,-0.0189,-0.0166,-0.0236,-0.0291,-0.0295,-0.0266,-0.0291,-0.0334,-0.0357,-0.0356,-0.0355,-0.0354,-0.0354,0,0.0104,0.0121,0.0149,0.0154,0.0171,0.0181,0.0187,0.0172,0.0184,0.0145,0.0144,0.0056,0.0022,-0.0081,-0.019,-0.0199,-0.0318,-0.0349,-0.0378,-0.0376,-0.0395,-0.0392,-0.0427,-0.0427,-0.0426,-0.0426,-0.0426,0,0.012,0.014,0.017,0.0185,0.0234,0.022,0.0255,0.0248,0.0238,0.025,0.0176,0.0165,0.0016,-0.0067,-0.0178,-0.0287,-0.0313,-0.0367,-0.0392,-0.0387,-0.0382,-0.04,-0.0396,-0.0429,-0.0428,-0.0428,-0.0427,0,0.0131,0.0147,0.0191,0.0225,0.0246,0.0278,0.0317,0.0341,0.0322,0.0335,0.0327,0.0238,0.0126,-0.0009,-0.0177,-0.0255,-0.0372,-0.0403,-0.0369,-0.0392,-0.0408,-0.0402,-0.0454,-0.0453,-0.0452,-0.0452,-0.0451,0,0.014,0.0165,0.0228,0.0272,0.0291,0.0344,0.0384,0.0386,0.0405,0.0384,0.0388,0.0296,0.0223,0.0024,-0.0135,-0.033,-0.0355,-0.0412,-0.0424,-0.0391,-0.0411,-0.0406,-0.0401,-0.045,-0.045,-0.045,-0.045,0,0.0168,0.0188,0.0227,0.0316,0.0373,0.0439,0.0484,0.0509,0.0505,0.0494,0.045,0.0345,0.0224,0.0043,-0.0096,-0.0242,-0.0377,-0.0406,-0.0409,-0.0422,-0.0388,-0.0407,-0.0403,-0.0448,-0.0448,-0.0448,-0.0448,0,0.0195,0.0228,0.0283,0.0361,0.0437,0.0502,0.0529,0.0551,0.0568,0.0533,0.0516,0.0378,0.0286,0.0089,-0.0046,-0.0175,-0.0221,-0.0266,-0.0277,-0.0281,-0.0208,-0.0139,-0.0137,0,0,0,0,0,0.022,0.0259,0.0331,0.0411,0.048,0.0522,0.0583,0.0598,0.0597,0.0581,0.055,0.0438,0.0239,0.0141,0.0018,-0.005,-0.025,-0.0198,-0.0308,-0.0436,-0.0439,-0.0379,0,0,0,0,0,0,0.0242,0.0301,0.0332,0.0434,0.0488,0.0567,0.0605,0.0611,0.0595,0.0573,0.0467,0.041,0.021,0.0307,0.0014,-0.0028,-0.0112,-0.0298,-0.03,-0.0435,-0.0437,-0.0439,-0.0378,0,0,0,0,0]}]]